Flag for Germany Weather past 2 weeks in Lahr, Baden-Württemberg, Germany

Now
51 °F

Overcast.


Feels Like: 48 °F
Forecast: 36 / 48 °F
Wind: 9 mph from Southwest

Location: Lahr

Current Time: Mar 2, 2015 at 1:30:10 AM

Latest Report: Mar 2, 2015 at 1:00 AM


Visibility: 44 mi

Pressure: 29.70 "Hg

Humidity: 82%

Dew point: 46 °F

Location of LahrLocation

Historic Weather in Lahr — Graph

°F

Lahr temperature yesterday

Maximum temperature yesterday: 53 °F (at 4:00 PM)
Minimum temperature yesterday: 36 °F (at 12:00 AM)
Average temperature yesterday: 46 °F

Past Weeks' High & Low Weather Summary

 TemperatureHumidityPressure
High57 °F (Feb 20, 4:00 PM)100% (Feb 15, 12:00 AM)30.74 "Hg (Feb 15, 12:00 AM)
Low25 °F (Feb 20, 4:00 AM)26% (Feb 20, 9:00 PM)29.55 "Hg (Feb 23, 5:00 PM)
Average39 °F81%30.06 "Hg
* Reported Midnight between Feb 14 and Feb 15 — Midnight between Mar 1 and Mar 2, Lahr, Weather by CustomWeather, © 2015

Note: Actual official high and low records may vary slightly from our data, if they occured in-between our weather recording intervals... More about our weather records

Advertising

Lahr weather history for previous 24 hours

 ConditionsComfort  
Time TempWeatherWind HumidityBarometerVisibility
12:00 AM
Mon, Mar 2
51 °FOvercast.9 mph77%29.72 "Hg43 mi
11:00 PM
Sun, Mar 1
51 °FOvercast.7 mph83%29.76 "Hg43 mi
10:00 PM51 °FLight rain. Overcast.5 mph83%29.79 "Hg15 mi
9:00 PM51 °FOvercast.6 mph83%29.80 "Hg37 mi
8:00 PM51 °FOvercast.5 mph85%29.81 "Hg43 mi
7:00 PM51 °FOvercast.7 mph88%29.81 "Hg40 mi
6:00 PM52 °FOvercast.6 mph85%29.80 "Hg40 mi
5:00 PM53 °FLight rain. Overcast.7 mph79%29.81 "Hg47 mi
4:00 PM53 °FOvercast.6 mph77%29.81 "Hg43 mi
3:00 PM52 °FDrizzle. Overcast.2 mph81%29.81 "Hg11 mi
2:00 PM51 °FDrizzle. Overcast.7 mph79%29.83 "Hg11 mi
1:00 PM50 °FOvercast.6 mph80%29.84 "Hg28 mi
12:00 PM48 °FOvercast.6 mph80%29.86 "Hg16 mi
11:00 AM47 °FOvercast.8 mph80%29.85 "Hg28 mi
10:00 AM45 °FLight rain. Overcast.12 mph79%29.85 "Hg25 mi
9:00 AM44 °FOvercast.7 mph78%29.87 "Hg10 mi
8:00 AM41 °FOvercast.8 mph74%29.86 "Hg28 mi
7:00 AM40 °FPassing clouds.9 mph76%29.86 "Hg2 mi
6:00 AM40 °FLight rain. Overcast.9 mph76%29.88 "Hg9 mi
5:00 AM43 °FLight rain. Overcast.8 mph59%29.88 "Hg12 mi
4:00 AM43 °FOvercast.6 mph61%29.90 "Hg37 mi
3:00 AM42 °FOvercast.6 mph65%29.93 "Hg25 mi
2:00 AM41 °FOvercast.5 mph66%29.96 "Hg28 mi
1:00 AM37 °FOvercast.2 mph75%29.98 "Hg17 mi
Weather by CustomWeather, © 2015

See weather overviewHow to use our weather pages